South Lake Tahoe, CA

10:57 PM PST on November 18, 2017 (GMT -0800)
Lake Tahoe

Weather History for KTVL - November, 2011

Change the Weather History Date:

Sunday, November 13, 2011

  Actual Average Record
Temperature  
Mean Temperature 44 °F 37 °F  
Max Temperature 56 °F 51 °F 66 °F (1995)
Min Temperature 31 °F 23 °F -2 °F (1985)
Degree Days  
Heating Degree Days 21 28  
Month to date heating degree days 393 338  
Since 1 July heating degree days 1365 1570  
Cooling Degree Days 0 0  
Month to date cooling degree days 0 0  
Year to date cooling degree days 19 31  
Moisture  
Dew Point 27 °F    
Average Humidity 54    
Maximum Humidity 85    
Minimum Humidity 22    
Precipitation  
Precipitation T in - 2.30 in (1981)
Month to date precipitation 0.59  
Year to date precipitation 15.55  
Sea Level Pressure  
Sea Level Pressure 29.96 in    
Wind  
Wind Speed 1 mph (ESE)    
Max Wind Speed 14 mph    
Max Gust Speed 28 mph    
Visibility 10 miles    
Events      
T = Trace of Precipitation, MM = Missing Value Source: NWS Daily Summary

Daily Weather History Graph

Daily Weather History Graph

Search for Another Location

Airport or City:

Trip Planner

Search our weather history database for the weather conditions in past years. The results will help you decide how hot, cold, wet, or windy it might be!

Date:

Astronomy

Nov. 13, 2011 Rise Set
Actual Time 6:40 AM PST 4:47 PM PST
Civil Twilight 6:11 AM PST 5:16 PM PST
Nautical Twilight 5:39 AM PST 5:48 PM PST
Astronomical Twilight 5:08 AM PST 6:19 PM PST
Moon 7:02 PM PST (11/13) 9:15 AM PST (11/13)
Length of Visible Light 11h 04m
Length of Day
10h 07m
Waning Gibbous, 92% of the Moon is Illuminated
Nov 13
Waning Gibbous
Nov 18
Last Quarter
Nov 24
New
Dec 2
First Quarter
Dec 10
Full

Hourly Weather History & Observations

Time (PST) Temp. Windchill Dew Point Humidity Pressure Visibility Wind Dir Wind Speed Gust Speed Precip Events Conditions
12:53 AM 30.9 °F - 27.0 °F 85% 29.91 in 10.0 mi Calm Calm - N/A   Mostly Cloudy
1:53 AM 32.0 °F - 28.0 °F 85% 29.92 in 10.0 mi Calm Calm - N/A   Mostly Cloudy
2:53 AM 33.8 °F - 28.4 °F 81% 29.97 in 10.0 mi Calm Calm - N/A   Overcast
3:53 AM 34.0 °F - 28.9 °F 82% 29.92 in 10.0 mi Calm Calm - 0.00 in   Overcast
4:53 AM 35.1 °F - 28.9 °F 78% 29.92 in 10.0 mi Calm Calm - N/A   Overcast
5:22 AM 35.6 °F 32.8 °F 30.2 °F 81% 29.97 in 10.0 mi South 3.5 mph - N/A   Overcast
5:53 AM 36.0 °F - 30.0 °F 79% 29.96 in 10.0 mi Calm Calm - N/A   Overcast
6:18 AM 35.6 °F - 30.2 °F 81% 29.99 in 10.0 mi Calm Calm - N/A   Overcast
6:53 AM 37.0 °F - 30.0 °F 76% 29.97 in 10.0 mi Calm Calm - N/A   Overcast
7:53 AM 36.0 °F - 30.0 °F 79% 30.01 in 10.0 mi Calm Calm - N/A   Clear
8:53 AM 41.0 °F - 33.1 °F 73% 30.00 in 10.0 mi Calm Calm - N/A   Clear
9:53 AM 48.9 °F - 32.0 °F 52% 29.97 in 10.0 mi Calm Calm - N/A   Clear
10:53 AM 51.1 °F - 28.0 °F 41% 29.97 in 10.0 mi Calm Calm - N/A   Clear
11:53 AM 53.1 °F - 21.9 °F 30% 29.95 in 10.0 mi NE 5.8 mph - N/A   Clear
12:53 PM 54.0 °F - 16.0 °F 22% 29.93 in 10.0 mi Variable 3.5 mph - N/A   Clear
1:53 PM 55.4 °F - 17.6 °F 23% 30.00 in 10.0 mi Variable 6.9 mph - N/A   Clear
2:53 PM 54.0 °F - 19.9 °F 26% 29.92 in 10.0 mi NNE 3.5 mph - N/A   Clear
3:53 PM 46.9 °F - 27.0 °F 46% 29.94 in 10.0 mi Calm Calm - N/A   Clear
4:53 PM 42.1 °F - 28.0 °F 58% 29.95 in 10.0 mi Calm Calm - N/A   Clear
5:53 PM 37.9 °F - 26.1 °F 62% 29.98 in 10.0 mi Calm Calm - N/A   Clear
6:53 PM 37.9 °F 35.5 °F 26.1 °F 62% 29.99 in 10.0 mi Variable 3.5 mph - N/A   Overcast
7:53 PM 36.0 °F 33.3 °F 24.1 °F 62% 29.98 in 10.0 mi SSW 3.5 mph - N/A   Partly Cloudy
8:53 PM 34.0 °F - 25.0 °F 70% 29.96 in 10.0 mi Calm Calm - N/A   Overcast
9:53 PM 36.0 °F - 26.1 °F 67% 29.94 in 10.0 mi Calm Calm - N/A   Overcast
10:53 PM 37.9 °F - 27.0 °F 65% 29.92 in 10.0 mi Calm Calm - N/A   Overcast
11:53 PM 39.9 °F - 30.9 °F 70% 29.89 in 10.0 mi Calm Calm - N/A   Overcast